Faribault, MN

9:32 AM CST on February 07, 2016 (GMT -0600)
Faribault Municipal

Weather History for KFBL - July, 2013

Change the Weather History Date:

Tuesday, July 23, 2013

  Actual Average Record
Temperature  
Mean Temperature 66 °F -  
Max Temperature 75 °F 81 °F 95 °F (1965)
Min Temperature 57 °F 59 °F 47 °F (1948)
Cooling Degree Days 1    
Growing Degree Days 16 (Base 50)    
Moisture  
Dew Point 56 °F    
Average Humidity 71    
Maximum Humidity 100    
Minimum Humidity 47    
Precipitation  
Precipitation 0.00 in - - ()
Sea Level Pressure  
Sea Level Pressure 29.97 in    
Wind  
Wind Speed 6 mph (NNW)    
Max Wind Speed 12 mph    
Max Gust Speed 20 mph    
Visibility 10 miles    
Events      
Averages and records for this station are not official NWS values.
T = Trace of Precipitation, MM = Missing Value Source: NWS Daily Summary

Daily Weather History Graph

Daily Weather History Graph

Search for Another Location

Airport or City:

Trip Planner

Search our weather history database for the weather conditions in past years. The results will help you decide how hot, cold, wet, or windy it might be!

Date:

Astronomy

Jul. 23, 2013 Rise Set
Actual Time 5:51 AM CDT 8:47 PM CDT
Civil Twilight 5:16 AM CDT 9:21 PM CDT
Nautical Twilight 4:33 AM CDT 10:05 PM CDT
Astronomical Twilight 3:41 AM CDT 10:56 PM CDT
Moon 9:09 PM CDT (7/23) 7:05 AM CDT (7/23)
Length of Visible Light 16h 04m
Length of Day
14h 56m
Full, 99% of the Moon is Illuminated
Jul 23
Full
Jul 29
Last Quarter
Aug 6
New
Aug 14
First Quarter
Aug 20
Full

Hourly Weather History & Observations

Time (CDT) Temp. Dew Point Humidity Pressure Visibility Wind Dir Wind Speed Gust Speed Precip Events Conditions
12:14 AM 66.2 °F 60.8 °F 83% 29.87 in 10.0 mi NW 5.8 mph - N/A   Mostly Cloudy
12:34 AM 66.2 °F 60.8 °F 83% 29.87 in 10.0 mi NW 6.9 mph - N/A   Overcast
12:54 AM 64.4 °F 59.0 °F 83% 29.86 in 10.0 mi NW 4.6 mph - N/A   Scattered Clouds
1:13 AM 64.4 °F 59.0 °F 83% 29.86 in 10.0 mi NW 4.6 mph - N/A   Clear
1:34 AM 62.6 °F 59.0 °F 88% 29.87 in 10.0 mi NW 5.8 mph - N/A   Clear
1:54 AM 62.6 °F 57.2 °F 82% 29.87 in 10.0 mi WNW 4.6 mph - N/A   Clear
2:14 AM 60.8 °F 57.2 °F 88% 29.87 in 10.0 mi NW 3.5 mph - N/A   Clear
2:34 AM 60.8 °F 57.2 °F 88% 29.88 in 10.0 mi NW 3.5 mph - N/A   Clear
2:54 AM 60.8 °F 57.2 °F 88% 29.88 in 10.0 mi NW 4.6 mph - N/A   Clear
3:14 AM 60.8 °F 57.2 °F 88% 29.89 in 10.0 mi NW 4.6 mph - N/A   Clear
3:34 AM 60.8 °F 57.2 °F 88% 29.88 in 10.0 mi NW 5.8 mph - N/A   Clear
3:54 AM 60.8 °F 57.2 °F 88% 29.89 in 10.0 mi NW 3.5 mph - N/A   Clear
4:14 AM 60.8 °F 57.2 °F 88% 29.90 in 10.0 mi NW 3.5 mph - N/A   Clear
4:34 AM 60.8 °F 57.2 °F 88% 29.91 in 10.0 mi NW 3.5 mph - N/A   Clear
4:54 AM 57.2 °F 57.2 °F 100% 29.92 in 10.0 mi NW 4.6 mph - N/A   Clear
5:14 AM 57.2 °F 57.2 °F 100% 29.93 in 10.0 mi West 4.6 mph - N/A   Clear
5:34 AM 57.2 °F 57.2 °F 100% 29.93 in 10.0 mi Calm Calm - N/A   Clear
5:54 AM 57.2 °F 55.4 °F 94% 29.94 in 10.0 mi West 4.6 mph - N/A   Clear
6:14 AM 57.2 °F 57.2 °F 100% 29.93 in 10.0 mi NW 4.6 mph - N/A   Clear
6:34 AM 60.8 °F 57.2 °F 88% 29.93 in 10.0 mi NW 6.9 mph - N/A   Clear
6:54 AM 60.8 °F 57.2 °F 88% 29.94 in 10.0 mi NW 9.2 mph - N/A   Clear
7:14 AM 62.6 °F 57.2 °F 82% 29.94 in 10.0 mi NW 6.9 mph - N/A   Clear
7:33 AM 62.6 °F 57.2 °F 82% 29.96 in 10.0 mi NW 6.9 mph - N/A   Clear
7:54 AM 64.4 °F 57.2 °F 77% 29.97 in 10.0 mi NW 8.1 mph - N/A   Clear
8:14 AM 64.4 °F 57.2 °F 77% 29.98 in 10.0 mi NNW 6.9 mph - N/A   Clear
8:33 AM 64.4 °F 57.2 °F 77% 29.97 in 10.0 mi North 8.1 mph - N/A   Clear
8:54 AM 66.2 °F 57.2 °F 73% 29.96 in 10.0 mi North 9.2 mph - N/A   Clear
9:13 AM 66.2 °F 55.4 °F 68% 29.97 in 10.0 mi North 10.4 mph - N/A   Clear
9:34 AM 66.2 °F 55.4 °F 68% 29.99 in 10.0 mi NNW 6.9 mph - N/A   Clear
9:53 AM 68.0 °F 57.2 °F 68% 29.99 in 10.0 mi NW 5.8 mph - N/A   Scattered Clouds
10:14 AM 68.0 °F 57.2 °F 68% 29.99 in 10.0 mi NNW 6.9 mph - N/A   Scattered Clouds
10:34 AM 69.8 °F 55.4 °F 60% 29.99 in 10.0 mi North 6.9 mph - N/A   Clear
10:54 AM 69.8 °F 55.4 °F 60% 29.99 in 10.0 mi NNW 6.9 mph - N/A   Clear
11:14 AM 69.8 °F 55.4 °F 60% 30.00 in 10.0 mi NNW 11.5 mph - N/A   Scattered Clouds
11:33 AM 71.6 °F 53.6 °F 53% 30.00 in 10.0 mi North 10.4 mph - N/A   Clear
11:54 AM 71.6 °F 55.4 °F 57% 30.00 in 10.0 mi NNW 11.5 mph 17.3 mph N/A   Scattered Clouds
12:14 PM 71.6 °F 53.6 °F 53% 30.01 in 10.0 mi NNW 11.5 mph 16.1 mph N/A   Scattered Clouds
12:33 PM 73.4 °F 53.6 °F 50% 30.00 in 10.0 mi North 10.4 mph 19.6 mph N/A   Clear
12:54 PM 73.4 °F 53.6 °F 50% 30.00 in 10.0 mi NNW 10.4 mph - N/A   Clear
1:14 PM 73.4 °F 53.6 °F 50% 30.00 in 10.0 mi NNE 10.4 mph - N/A   Clear
1:34 PM 73.4 °F 53.6 °F 50% 30.00 in 10.0 mi NNE 9.2 mph 16.1 mph N/A   Scattered Clouds
1:54 PM 73.4 °F 53.6 °F 50% 30.00 in 10.0 mi North 11.5 mph - N/A   Scattered Clouds
2:14 PM 73.4 °F 55.4 °F 53% 30.00 in 10.0 mi NNE 6.9 mph - N/A   Clear
2:34 PM 73.4 °F 53.6 °F 50% 30.00 in 10.0 mi NNW 9.2 mph 16.1 mph N/A   Clear
2:54 PM 73.4 °F 53.6 °F 50% 29.99 in 10.0 mi North 5.8 mph - N/A   Clear
3:14 PM 73.4 °F 53.6 °F 50% 29.99 in 10.0 mi North 10.4 mph 16.1 mph N/A   Clear
3:34 PM 75.2 °F 53.6 °F 47% 29.99 in 10.0 mi NNW 8.1 mph - N/A   Clear
3:53 PM 75.2 °F 53.6 °F 47% 29.99 in 10.0 mi NNW 8.1 mph - N/A   Clear
4:14 PM 75.2 °F 53.6 °F 47% 29.99 in 10.0 mi NNE 8.1 mph - N/A   Clear
4:34 PM 73.4 °F 55.4 °F 53% 29.99 in 10.0 mi NNE 5.8 mph - N/A   Clear
4:54 PM 73.4 °F 53.6 °F 50% 29.99 in 10.0 mi NE 5.8 mph - N/A   Clear
5:14 PM 73.4 °F 55.4 °F 53% 29.98 in 10.0 mi NNE 5.8 mph - N/A   Clear
5:33 PM 73.4 °F 55.4 °F 53% 29.98 in 10.0 mi NNE 6.9 mph - N/A   Clear
5:54 PM 73.4 °F 55.4 °F 53% 29.99 in 10.0 mi North 8.1 mph - N/A   Clear
6:14 PM 73.4 °F 53.6 °F 50% 29.99 in 10.0 mi NNE 5.8 mph - N/A   Clear
6:34 PM 73.4 °F 53.6 °F 50% 29.99 in 10.0 mi North 6.9 mph - N/A   Clear
6:54 PM 73.4 °F 55.4 °F 53% 29.99 in 10.0 mi NNE 4.6 mph - N/A   Clear
7:13 PM 71.6 °F 55.4 °F 57% 29.99 in 10.0 mi NNE 4.6 mph - N/A   Clear
7:34 PM 71.6 °F 55.4 °F 57% 30.00 in 10.0 mi NNE 3.5 mph - N/A   Clear
7:54 PM 69.8 °F 55.4 °F 60% 30.01 in 10.0 mi NNE 3.5 mph - N/A   Clear
8:14 PM 69.8 °F 55.4 °F 60% 30.01 in 10.0 mi Calm Calm - N/A   Clear
8:34 PM 69.8 °F 55.4 °F 60% 30.01 in 10.0 mi Calm Calm - N/A   Scattered Clouds
8:54 PM 66.2 °F 55.4 °F 68% 30.00 in 10.0 mi Calm Calm - N/A   Scattered Clouds
9:14 PM 64.4 °F 57.2 °F 77% 30.01 in 10.0 mi Calm Calm - N/A   Clear
9:34 PM 64.4 °F 57.2 °F 77% 30.01 in 10.0 mi Calm Calm - N/A   Clear
9:53 PM 62.6 °F 59.0 °F 88% 30.02 in 10.0 mi Calm Calm - N/A   Clear
10:14 PM 60.8 °F 57.2 °F 88% 30.03 in 10.0 mi Calm Calm - N/A   Clear
10:33 PM 60.8 °F 57.2 °F 88% 30.02 in 10.0 mi Calm Calm - N/A   Clear
10:54 PM 60.8 °F 57.2 °F 88% 30.02 in 10.0 mi Calm Calm - N/A   Clear
11:14 PM 59.0 °F 57.2 °F 94% 30.03 in 10.0 mi Calm Calm - N/A   Clear
11:34 PM 59.0 °F 57.2 °F 94% 30.03 in 10.0 mi Calm Calm - N/A   Clear
11:54 PM 59.0 °F 57.2 °F 94% 30.04 in 10.0 mi Calm Calm - N/A   Clear